Weather History for Shannon, Ireland

Change the Weather History Date:

Thursday, April 25, 2013

  Actual Average Record
Temperature  
Mean Temperature 48 °F -  
Max Temperature 53 °F 59 °F 62 °F (1997)
Min Temperature 42 °F 44 °F 41 °F (2012)
Degree Days  
Heating Degree Days 18    
Moisture  
Dew Point 41 °F    
Average Humidity 79    
Maximum Humidity 100    
Minimum Humidity 50    
Precipitation  
Precipitation 0.00 in 0.08 in - ()
Sea Level Pressure  
Sea Level Pressure 30.20 in    
Wind  
Wind Speed 9 mph ()    
Max Wind Speed 18 mph    
Max Gust Speed 29 mph    
Visibility 6.3 miles    
Events Rain    
Averages and records for this station are not official NWS values.
T = Trace of Precipitation, MM = Missing Value Source: Averaged Metar Reports

Daily Weather History Graph

Daily Weather History Graph

Search for Another Location

Airport:

Trip Planner

Search our weather history database for the weather conditions in past years. The results will help you decide how hot, cold, wet, or windy it might be!

Date:

Astronomy

Apr. 25, 2013 Rise Set
Actual Time 6:15 AM IST 8:52 PM IST
Civil Twilight 5:37 AM IST 9:31 PM IST
Nautical Twilight 4:48 AM IST 10:20 PM IST
Astronomical Twilight 3:48 AM IST 11:21 PM IST
Moon 8:52 PM IST (4/25) 5:52 AM IST (4/25)
Length of Visible Light 15h 53m
Length of Day
14h 36m
Full, 100% of the Moon is Illuminated
Apr 25
Full
Apr 25
Full
May 2
Last Quarter
May 10
New
May 18
First Quarter

Hourly Weather History & Observations

Time (IST) Temp. Windchill Dew Point Humidity Pressure Visibility Wind Dir Wind Speed Gust Speed Precip Events Conditions
12:00 AM 46.4 °F 42.4 °F 46.4 °F 100% 30.21 in 5.6 mi NNW 8.1 mph - N/A Rain Light Rain
12:30 AM 46.4 °F 43.5 °F 46.4 °F 100% 30.21 in 5.6 mi NNW 5.8 mph - N/A Rain Light Rain
1:00 AM 46 °F - 46 °F 97% 30.21 in 5 mi North 4.5 mph - - Rain Light Rain
1:00 AM 46.4 °F 44.3 °F 46.4 °F 100% 30.18 in 5.0 mi North 4.6 mph - N/A Rain Light Rain
1:30 AM 46.4 °F 44.3 °F 46.4 °F 100% 30.18 in 5.0 mi NNW 4.6 mph - N/A Rain Light Rain
2:00 AM 46.4 °F 42.9 °F 44.6 °F 93% 30.18 in 4.3 mi NNW 6.9 mph - N/A Rain Light Rain
2:30 AM 44.6 °F 39.7 °F 44.6 °F 100% 30.18 in 3.1 mi NNW 9.2 mph - N/A Rain Light Rain
3:00 AM 44.6 °F 39.2 °F 44.6 °F 100% 30.15 in 3.7 mi NNW 10.4 mph - N/A Rain Light Rain
4:00 AM 44.6 °F 39.2 °F 44.6 °F 100% 30.15 in 5.6 mi NNW 10.4 mph - N/A Rain Light Rain
4:30 AM 44.6 °F 39.2 °F 42.8 °F 93% 30.15 in 2.5 mi NNW 10.4 mph - N/A Rain Light Rain
5:00 AM 44.6 °F 39.2 °F 42.8 °F 93% 30.15 in 2.5 mi NNW 10.4 mph - N/A Rain Light Rain
5:30 AM 44.6 °F 40.2 °F 42.8 °F 93% 30.15 in 5.6 mi North 8.1 mph - N/A Rain Light Rain
6:00 AM 44.6 °F 42.2 °F 42.8 °F 93% 30.15 in 6.2 mi North 4.6 mph - N/A Rain Light Rain
6:30 AM 44.6 °F 42.2 °F 42.8 °F 93% 30.15 in 6.2 mi NW 4.6 mph - N/A Rain Light Rain
7:00 AM 44 °F - 43 °F 95% 30.17 in 9 mi NNW 6.7 mph - - Rain Light Rain
7:00 AM 42.8 °F 39.3 °F 42.8 °F 100% 30.15 in 6.2 mi NNW 5.8 mph - N/A Rain Light Rain
7:30 AM 44.6 °F 40.2 °F 42.8 °F 93% 30.18 in 6.2 mi NW 8.1 mph - N/A   Mostly Cloudy
8:00 AM 44.6 °F 39.7 °F 42.8 °F 93% 30.18 in 6.2 mi NW 9.2 mph - N/A   Mostly Cloudy
8:30 AM 44.6 °F 40.7 °F 42.8 °F 93% 30.18 in 6.2 mi NW 6.9 mph - N/A   Light Drizzle
9:00 AM 44.6 °F 39.7 °F 42.8 °F 93% 30.21 in 6.2 mi WNW 9.2 mph - N/A   Mostly Cloudy
9:30 AM 46.4 °F 41.5 °F 42.8 °F 87% 30.21 in 6.2 mi WNW 10.4 mph - N/A   Mostly Cloudy
10:00 AM 46.4 °F 41.9 °F 42.8 °F 87% 30.21 in 6.2 mi NW 9.2 mph - N/A   Mostly Cloudy
10:30 AM 48.2 °F - 42.8 °F 82% 30.21 in 6.2 mi WNW 10.4 mph - N/A   Mostly Cloudy
11:00 AM 50.0 °F - 42.8 °F 76% 30.21 in 6.2 mi WNW 11.5 mph - N/A   Mostly Cloudy
11:30 AM 50.0 °F - 44.6 °F 82% 30.21 in 6.2 mi WNW 11.5 mph - N/A   Mostly Cloudy
12:00 PM 48.2 °F - 42.8 °F 82% 30.21 in 6.2 mi WNW 15.0 mph - N/A   Mostly Cloudy
12:30 PM 50.0 °F - 39.2 °F 66% 30.21 in 6.2 mi WNW 15.0 mph - N/A   Scattered Clouds
1:00 PM 51 °F - 38 °F 50% 30.22 in 19 mi WNW 15.7 mph - -   Partly Cloudy
1:00 PM 51.8 °F - 37.4 °F 58% 30.21 in 6.2 mi WNW 15.0 mph - N/A   Partly Cloudy
1:30 PM 51.8 °F - 37.4 °F 58% 30.21 in 6.2 mi WNW 16.1 mph - N/A   Scattered Clouds
2:00 PM 51.8 °F - 39.2 °F 62% 30.21 in 6.2 mi WNW 15.0 mph - N/A   Scattered Clouds
2:30 PM 53.6 °F - 39.2 °F 58% 30.21 in 6.2 mi West 17.3 mph - N/A   Scattered Clouds
3:00 PM 51.8 °F - 39.2 °F 62% 30.21 in 6.2 mi West 18.4 mph - N/A   Scattered Clouds
3:30 PM 51.8 °F - 39.2 °F 62% 30.21 in 6.2 mi WNW 17.3 mph - N/A   Scattered Clouds
4:00 PM 53.6 °F - 39.2 °F 58% 30.21 in 6.2 mi WNW 17.3 mph 28.8 mph N/A   Scattered Clouds
4:30 PM 53.6 °F - 39.2 °F 58% 30.21 in 6.2 mi WNW 17.3 mph - N/A   Scattered Clouds
5:00 PM 51.8 °F - 37.4 °F 58% 30.21 in 6.2 mi West 17.3 mph - N/A   Scattered Clouds
5:30 PM 51.8 °F - 37.4 °F 58% 30.21 in 6.2 mi West 18.4 mph - N/A   Partly Cloudy
6:00 PM 51.8 °F - 35.6 °F 54% 30.21 in 6.2 mi WNW 16.1 mph - N/A   Partly Cloudy
6:30 PM 51.8 °F - 39.2 °F 62% 30.21 in 6.2 mi WNW 17.3 mph - N/A   Partly Cloudy
7:00 PM 51 °F - 39 °F 54% 30.23 in 19 mi West 15.7 mph - -   Scattered Clouds
7:00 PM 50.0 °F - 39.2 °F 66% 30.21 in 6.2 mi West 16.1 mph - N/A   Partly Cloudy
7:30 PM 50.0 °F - 37.4 °F 62% 30.21 in 6.2 mi West 17.3 mph - N/A   Partly Cloudy
8:00 PM 48.2 °F - 37.4 °F 66% 30.21 in 6.2 mi West 16.1 mph - N/A   Partly Cloudy
8:30 PM 46.4 °F 40.1 °F 37.4 °F 71% 30.21 in 6.2 mi West 15.0 mph - N/A   Partly Cloudy
9:00 PM 46.4 °F 41.1 °F 37.4 °F 71% 30.21 in 6.2 mi West 11.5 mph - N/A   Partly Cloudy
9:30 PM 44.6 °F 38.4 °F 37.4 °F 76% 30.24 in 6.2 mi West 12.7 mph - N/A   Partly Cloudy
10:00 PM 44.6 °F 38.4 °F 39.2 °F 81% 30.24 in 6.2 mi West 12.7 mph - N/A   Partly Cloudy
10:30 PM 44.6 °F 37.8 °F 39.2 °F 81% 30.24 in 6.2 mi West 15.0 mph - N/A   Partly Cloudy
11:00 PM 42.8 °F 38.6 °F 37.4 °F 81% 30.24 in 6.2 mi WNW 6.9 mph - N/A   Partly Cloudy
11:30 PM 42.8 °F 39.3 °F 37.4 °F 81% 30.24 in 6.2 mi West 5.8 mph - N/A   Partly Cloudy